OBJECT D, 60457

Orbit data source: Space-Track

You're viewing an Uncataloged Satellite

Recently launched and/or uncataloged satellites may have evolving metadata. Metadata may include but not limited to: Owner, Maufacturer, Bus, Motor, and Mission.

OBJECT D, 60457 is a satellite owned by ISRO (IN) in LEO that was launched on Fri, 16 Aug 2024 UTC launched from the Sirharikota (SRI). Unknown objects in Earth's orbit typically refer to objects detected orbiting the Earth but have not yet been identified or cataloged. These objects could be anything from previously untracked satellites, spent rocket stages, debris from satellite collisions, or even natural meteoroids temporarily captured by Earth's gravity.

Loading next visibility...
Identifier
60457, 2024-147D
Orbit
LEO
Last TLE update
18 hours ago
Origin
Manufacturer
ISRO
Mission
Spacecraft
Bus & Motor
VTM, Unknown motor
Mass
~200 kg wet, ~200 kg dry
Launch date (UTC)
2024-08-16 (11 months ago)
Launch vehicle
Unknown
Launch site
Sirharikota (SRI)
Object type
Unknown
Shape & HBR
Cyl, 1.0 m
Radar Cross Section
2.356 m², Large (>1 m²)

Expand to show TLE details & history

TLE from 18 hours ago
0 OBJECT D
1 60457U 24147D   25199.73728230  .00044277  00000-0  41319-3 0  9993
2 60457  37.3599 318.5307 0016031  13.9994 346.1218 15.66154789 52265
Epoch: 2025-07-18T17:41Z
TLE epoch observation values (Epoch: 2025-07-18T17:41:41.19Z)
Latitude
-0.00004°
Longitude
116.32458°
Altitude
358.562 km
Speed
7.702 km/s
True Right ascension
21h 14m 07s
True Declination
0° 00' 00"
Sunlit
Object was in full shadow at epoch
Visualization orbit readout
Latitude
-27.42013°
Longitude
68.88794°
Altitude
372.35 km
Speed
7.689 km/s
Apparent Right ascension
15h 42m 04s
Apparent Declination
-40° 44' 09"
Sunlit
Object is in full shadow
Visualization observer readout
Local Sidereal Time
00:40:26
Azimuth
253.565° W
Elevation
-55.765°
Doppler factor
1
Orbital elements
Apogee altitude
383.669 km
Perigee altitude
362.024 km
Semi-major axis
6,750.983 km
Eccentricity
0.0016
Inclination
37.3599°
RAAN
318.5307°
Arg. of periapsis
13.9994°
True anomaly
346.07765°
Mean anomaly
346.1218°
Eccentric anomaly
346.09973°
Mean motion
3.91284 °/min
Orbital period
92 mins
BSTAR
0.00041319
Loading maneuver chart data...
Loading SW <> Apogee altitude chart data...
Loading historical data...
Loading historical data...
Loading historical data...
Loading historical data...
Loading historical data...
Loading historical data...
Loading historical data...
Other satellites on launch #147 in the year 2024 (2024-08-16 UTC)
|